When you browse on this site, cookies collect data to enhance your experience and personalize the content and advertising you see.
Visit our Privacy Policy to learn more. By continuing to use the site, you agree to this use of cookies and data.
  • In Romania
  • List of Countries
  • For 7 days
  • Water Temperature
  • Weather Map
  • Weather Widgets
  • user-avatar
    Login

    Hourly Weather Kankan

    Today, 21 August, Wednesday

    Time Temperature Precipitation Wind Pressure Humidity
    00:00 +22°C° 0.4 mm 1 mps 686 mmHg 94%
    01:00 +22°C° 0.4 mm 1 mps 686 mmHg 94%
    02:00 +20°C° 0.5 mm 2 mps 686 mmHg 94%
    03:00 +20°C° 0.5 mm 2 mps 685 mmHg 94%
    04:00 +20°C° 0.5 mm 2 mps 685 mmHg 95%
    05:00 +20°C° 1 mm 2 mps 685 mmHg 95%
    06:00 +20°C° 1 mm 2 mps 686 mmHg 95%
    07:00 +20°C° 1 mm 2 mps 686 mmHg 95%
    08:00 +20°C° 0.1 mm 2 mps 686 mmHg 94%
    09:00 +21°C° 0.1 mm 2 mps 686 mmHg 93%
    10:00 +21°C° 0.1 mm 2 mps 687 mmHg 91%
    11:00 +23°C° 0 mm 2 mps 687 mmHg 87%
    12:00 +24°C° 0 mm 2 mps 686 mmHg 82%
    13:00 +25°C° 0 mm 3 mps 686 mmHg 78%
    14:00 +25°C° 0.3 mm 2 mps 686 mmHg 80%
    15:00 +25°C° 0.3 mm 2 mps 685 mmHg 81%
    16:00 +25°C° 0.3 mm 2 mps 684 mmHg 82%
    17:00 +24°C° 0.8 mm 1 mps 684 mmHg 85%
    18:00 +23°C° 0.8 mm 1 mps 684 mmHg 88%
    19:00 +20°C° 0.8 mm 0 mps 685 mmHg 92%
    20:00 +22°C° 0.3 mm 1 mps 685 mmHg 91%
    21:00 +22°C° 0.3 mm 1 mps 685 mmHg 91%
    22:00 +22°C° 0.3 mm 1 mps 685 mmHg 91%
    23:00 +21°C° 0 mm 1 mps 685 mmHg 91%

    Tomorrow, 22 August, Thursday

    Time Temperature Precipitation Wind Pressure Humidity
    00:00 +21°C° 0 mm 1 mps 685 mmHg 92%
    01:00 +21°C° 0 mm 1 mps 685 mmHg 93%
    02:00 +20°C° 0 mm 2 mps 684 mmHg 93%
    03:00 +20°C° 0 mm 2 mps 684 mmHg 93%
    04:00 +20°C° 0 mm 2 mps 684 mmHg 93%
    05:00 +20°C° 0 mm 2 mps 684 mmHg 93%
    06:00 +20°C° 0 mm 2 mps 685 mmHg 93%
    07:00 +20°C° 0 mm 2 mps 685 mmHg 94%
    08:00 +23°C° 0.2 mm 2 mps 685 mmHg 89%
    09:00 +24°C° 0.2 mm 2 mps 686 mmHg 84%
    10:00 +25°C° 0.2 mm 3 mps 686 mmHg 79%
    11:00 +26°C° 1.9 mm 2 mps 686 mmHg 78%
    12:00 +27°C° 1.9 mm 2 mps 685 mmHg 77%
    13:00 +28°C° 1.9 mm 2 mps 685 mmHg 76%
    14:00 +27°C° 2.9 mm 2 mps 684 mmHg 78%
    15:00 +27°C° 2.9 mm 2 mps 684 mmHg 80%
    16:00 +27°C° 2.9 mm 2 mps 683 mmHg 82%
    17:00 +25°C° 2.5 mm 2 mps 683 mmHg 85%
    18:00 +24°C° 2.5 mm 2 mps 684 mmHg 88%
    19:00 +23°C° 2.5 mm 2 mps 684 mmHg 91%
    20:00 +23°C° 1.3 mm 2 mps 684 mmHg 92%
    21:00 +21°C° 1.3 mm 2 mps 685 mmHg 93%
    22:00 +21°C° 1.3 mm 2 mps 685 mmHg 94%
    23:00 +21°C° 1.1 mm 3 mps 685 mmHg 94%

    Day after tomorrow, 23 August, Friday

    Time Temperature Precipitation Wind Pressure Humidity
    00:00 +21°C° 1.1 mm 3 mps 685 mmHg 94%
    01:00 +21°C° 1.1 mm 3 mps 685 mmHg 94%
    02:00 +21°C° 1.2 mm 3 mps 685 mmHg 95%
    03:00 +21°C° 1.2 mm 2 mps 685 mmHg 95%
    04:00 +21°C° 1.2 mm 2 mps 685 mmHg 96%
    05:00 +20°C° 1.1 mm 2 mps 685 mmHg 96%
    06:00 +20°C° 1.1 mm 2 mps 685 mmHg 96%
    07:00 +20°C° 1.1 mm 2 mps 685 mmHg 96%
    08:00 +21°C° 0.4 mm 2 mps 686 mmHg 94%
    09:00 +23°C° 0.4 mm 2 mps 686 mmHg 92%
    10:00 +23°C° 0.4 mm 2 mps 687 mmHg 90%
    11:00 +24°C° 1.1 mm 3 mps 686 mmHg 87%
    12:00 +25°C° 1.1 mm 4 mps 686 mmHg 84%
    13:00 +25°C° 1.1 mm 4 mps 686 mmHg 81%
    14:00 +25°C° 0.2 mm 4 mps 685 mmHg 82%
    15:00 +23°C° 0.2 mm 4 mps 685 mmHg 82%
    16:00 +24°C° 0.2 mm 3 mps 684 mmHg 83%
    17:00 +22°C° 0.1 mm 3 mps 685 mmHg 85%
    18:00 +22°C° 0.1 mm 3 mps 685 mmHg 86%
    19:00 +21°C° 0.1 mm 3 mps 685 mmHg 88%
    20:00 +21°C° 0 mm 3 mps 685 mmHg 89%
    21:00 +20°C° 0 mm 2 mps 686 mmHg 89%
    22:00 +20°C° 0 mm 2 mps 686 mmHg 90%
    23:00 +20°C° 0.1 mm 2 mps 686 mmHg 90%

    24 August, Saturday

    Time Temperature Precipitation Wind Pressure Humidity
    00:00 +20°C° 0.1 mm 2 mps 686 mmHg 90%
    01:00 +20°C° 0.1 mm 2 mps 686 mmHg 90%
    02:00 +20°C° 0 mm 2 mps 686 mmHg 90%
    03:00 +21°C° 0 mm 1 mps 686 mmHg 91%
    04:00 +21°C° 0 mm 1 mps 686 mmHg 91%
    05:00 +21°C° 0 mm 1 mps 686 mmHg 91%
    06:00 +21°C° 0 mm 1 mps 686 mmHg 91%
    07:00 +21°C° 0 mm 1 mps 687 mmHg 91%
    08:00 +21°C° 0 mm 1 mps 687 mmHg 90%
    09:00 +22°C° 0 mm 1 mps 687 mmHg 89%
    10:00 +22°C° 0 mm 1 mps 688 mmHg 88%
    11:00 +23°C° 0.1 mm 2 mps 687 mmHg 84%
    12:00 +24°C° 0.1 mm 2 mps 687 mmHg 81%
    13:00 +25°C° 0.1 mm 3 mps 687 mmHg 77%
    14:00 +25°C° 0.4 mm 3 mps 686 mmHg 77%
    15:00 +25°C° 0.4 mm 3 mps 686 mmHg 77%
    16:00 +25°C° 0.4 mm 3 mps 686 mmHg 77%
    17:00 +24°C° 0.4 mm 3 mps 686 mmHg 81%
    18:00 +23°C° 0.4 mm 2 mps 686 mmHg 86%
    19:00 +21°C° 0.4 mm 2 mps 686 mmHg 90%
    20:00 +21°C° 0.1 mm 2 mps 686 mmHg 90%
    21:00 +20°C° 0.1 mm 2 mps 687 mmHg 90%
    22:00 +21°C° 0.1 mm 1 mps 687 mmHg 90%
    23:00 +21°C° 0.1 mm 1 mps 687 mmHg 90%

    25 August, Sunday

    Time Temperature Precipitation Wind Pressure Humidity
    00:00 +21°C° 0.1 mm 1 mps 687 mmHg 90%
    01:00 +21°C° 0.1 mm 1 mps 687 mmHg 91%
    02:00 +21°C° 0.2 mm 1 mps 686 mmHg 91%
    03:00 +21°C° 0.2 mm 1 mps 686 mmHg 92%
    04:00 +21°C° 0.2 mm 1 mps 686 mmHg 92%
    05:00 +21°C° 0 mm 1 mps 686 mmHg 92%
    06:00 +21°C° 0 mm 1 mps 686 mmHg 92%
    07:00 +21°C° 0 mm 1 mps 687 mmHg 93%
    08:00 +21°C° 0 mm 1 mps 687 mmHg 91%
    09:00 +22°C° 0 mm 1 mps 687 mmHg 89%
    10:00 +22°C° 0 mm 1 mps 688 mmHg 87%
    11:00 +23°C° 0 mm 1 mps 688 mmHg 84%
    12:00 +24°C° 0 mm 2 mps 687 mmHg 81%
    13:00 +24°C° 0 mm 2 mps 687 mmHg 78%
    14:00 +24°C° 0.3 mm 2 mps 687 mmHg 78%
    15:00 +24°C° 0.3 mm 2 mps 686 mmHg 78%
    16:00 +24°C° 0.3 mm 2 mps 686 mmHg 79%
    17:00 +23°C° 0.1 mm 2 mps 686 mmHg 82%
    18:00 +22°C° 0.1 mm 1 mps 686 mmHg 85%
    19:00 +22°C° 0.1 mm 1 mps 686 mmHg 89%
    20:00 +21°C° 0 mm 1 mps 686 mmHg 90%
    21:00 +21°C° 0 mm 1 mps 686 mmHg 91%
    22:00 +21°C° 0 mm 1 mps 687 mmHg 92%
    23:00 +21°C° 0 mm 1 mps 686 mmHg 92%

    26 August, Monday

    Time Temperature Precipitation Wind Pressure Humidity
    00:00 +21°C° 0 mm 1 mps 686 mmHg 92%
    01:00 +21°C° 0 mm 1 mps 686 mmHg 92%
    02:00 +21°C° 0 mm 1 mps 686 mmHg 91%
    03:00 +21°C° 0 mm 1 mps 686 mmHg 90%
    04:00 +21°C° 0 mm 1 mps 685 mmHg 89%
    05:00 +21°C° 0 mm 1 mps 686 mmHg 89%
    06:00 +21°C° 0 mm 1 mps 686 mmHg 89%
    07:00 +21°C° 0 mm 1 mps 686 mmHg 90%
    08:00 +22°C° 0 mm 1 mps 687 mmHg 84%
    09:00 +24°C° 0 mm 2 mps 687 mmHg 79%
    10:00 +25°C° 0 mm 2 mps 688 mmHg 74%
    11:00 +26°C° 0.8 mm 2 mps 687 mmHg 74%
    12:00 +26°C° 0.8 mm 2 mps 687 mmHg 73%
    13:00 +27°C° 0.8 mm 2 mps 687 mmHg 73%
    14:00 +27°C° 1.6 mm 2 mps 686 mmHg 76%
    15:00 +26°C° 1.6 mm 2 mps 685 mmHg 78%
    16:00 +26°C° 1.6 mm 2 mps 685 mmHg 81%
    17:00 +25°C° 1.6 mm 2 mps 685 mmHg 84%
    18:00 +24°C° 1.6 mm 2 mps 684 mmHg 88%
    19:00 +23°C° 1.6 mm 1 mps 684 mmHg 91%
    20:00 +22°C° 0.6 mm 1 mps 685 mmHg 91%
    21:00 +22°C° 0.6 mm 1 mps 686 mmHg 91%
    22:00 +22°C° 0.6 mm 1 mps 686 mmHg 91%
    23:00 +22°C° 0.2 mm 1 mps 686 mmHg 91%
    Show more